www.pogodaiklimat.ru

Погода и климат >> Архив погоды >> Узбекистан >> Нукус


ПОГОДА в Нукусе

  • Прогноз погоды в Нукусе
  • Монитор погоды в Нукусе
  • Климат города

АРХИВ ПОГОДЫ в Нукусе

Время (UTC), дата Ветер
(напр.,м/с)
 
Видим.   Явления Облачность Т
(С)
Тd
(С)
f
(%)
Тe
(С)
Тes
(С)
Комфортность P
(гПа)
Po
(гПа)
Тmin
(С)
Tmax
(С)
R
(мм)
R24
(мм)
S
(см)
00 5.12 В 6 20 км 9/9 450 м
[Sc]
-5.4 -8.7 78 -13 -13 1036.7 1026.7
03 5.12 СВ 3 20 км 3/3 600 м
[Sc]
-7.2 -9.7 82 -13 -13 1036.7 1026.7
06 5.12 В 6 20 км 3/3 300 м
[Sc]
-4.7 -9.5 69 -12 -12 1036.6 1026.8 -7.4
09 5.12 В 5 20 км ясно -1.9 -9.4 56 -8 -6 1034.5 1024.7
12 5.12 В 5 20 км ясно -1.5 -8.7 58 -7 -7 1033.1 1023.4
15 5.12 В 4 20 км ясно -3.6 -8.4 69 -9 -9 1032.4 1022.7 -0.3
18 5.12 В 6 20 км ясно -4.4 -7.5 79 -12 -12 1031.6 1021.9 -0.3
21 5.12 В 5 20 км ясно -5.4 -7.5 85 -13 -13 1030.3 1020.4
00 6.12 В 5 20 км ясно -6.5 -8.5 86 -14 -14 1029.0 1019.1
03 6.12 В 5 20 км 3/0
[Ci fib]
-6.5 -8.5 86 -14 -14 1028.3 1018.4
06 6.12 В 6 20 км 8/0
[Ci ing]
-2.3 -6.6 72 -9 -8 1027.1 1017.4 -6.9
09 6.12 В 8 20 км 8/0
[Ci ing]
+2.1 -7.1 51 -4 -4 1024.1 1014.5
12 6.12 В 6 20 км 8/0
[Ci ing]
+1.9 -7.0 52 -4 -4 1022.2 1012.7
15 6.12 В 6 20 км 8/0
[Ci ing]
+1.9 -7.0 52 -4 -4 1022.2 1012.7
18 6.12 В 7 20 км 9/0
[Ci ing]
-1.2 -5.5 73 -8 -8 1019.7 1010.1 +3.0
21 6.12 В 6 20 км 10/0
[Ci ing]
-1.0 -5.3 73 -8 -8 1016.7 1007.1
00 7.12 В 6 20 км 9/0
[Ac trans]
-0.2 -5.6 67 -7 -7 1015.0 1005.4
03 7.12 СВ 2 20 км 8/0
[Ac trans Ci ing]
-1.3 -6.4 68 -5 -5 1014.7 1005.1
06 7.12 В 4 4000 м дымка 9/0
[Ac As]
+1.3 -6.6 56 -3 -3 1014.5 1005.0 -1.5
09 7.12 В 4 20 км 9/0
[Ac As]
+5.0 -6.5 43 +2 +3 1011.2 1001.8
12 7.12 В 2 20 км 9/9 800 м
[Sc]
+3.7 -5.6 51 +1 +1 1010.6 1001.1
15 7.12 З 1 20 км 9/9 840 м
[Sc]
+1.7 -5.6 58 +1 +1 1010.1 1000.7 +5.3
18 7.12 З 2 4000 м дымка 9/9 900 м
[Sc]
-0.5 -4.3 75 -4 -4 1009.5 999.9 +5.3
21 7.12 СЗ 2 4000 м дымка 8/0
[Ac trans]
-2.0 -4.8 81 -6 -6 1007.7 998.1
00 8.12 СЗ 2 4000 м дымка 8/0
[Ac As]
-2.0 -4.1 86 -6 -6 1008.3 998.7
03 8.12 ЮЗ 2 4000 м дымка 6/0
[Ac As]
-2.2 -4.0 87 -6 -6 1009.9 1000.3
06 8.12 З 4 20 км дымка 9/0
[Ac As]
-0.5 -3.6 80 -6 -5 1011.0 1001.4 -2.5
09 8.12 З 4 2000 м слабый ливневой снег 10/10 600 м
[Cb cap]
-0.6 -1.2 96 -6 -6 1010.3 1000.7
12 8.12 ЮЗ 4 20 км {ливн. осадки} 9/9 300 м
[Sc]
+0.7 -0.7 90 -5 -5 1012.1 1002.7
15 8.12 З 5 20 км {снег} 10/10 270 м
[St]
+0.2 -1.9 86 -6 -6 1014.2 1004.7 +1.0
18 8.12 ЮЗ 3 20 км слабый ливневой снег 10/4 1000 м
[Cb cap Ac As]
-0.5 -2.3 88 -5 -5 1015.5 1005.9 +1.0 0.4
21 8.12 Ю 3 2000 м слабый снег {ливн. осадки} 10/0 300 м
[As op]
-0.7 -1.7 93 -6 -6 1015.9 1006.3
00 9.12 ЮЗ 4 2000 м слабый снег 10/9 180 м
[Frnb As op]
-0.5 -1.7 92 -6 -6 1016.3 1006.7
03 9.12 ЮЗ 3 20 км {снег} 4/4 480 м
[Sc]
-4.7 -5.7 93 -10 -10 1019.4 1009.8 8
06 9.12 ЮЗ 3 20 км 8/4 1500 м
[Sc Ac trans]
-3.8 -5.6 87 -9 -8 1022.1 1012.5 -5.0 6
09 9.12 ЮЗ 6 20 км {снег} 8/8 450 м
[Sc]
-1.4 -4.4 80 -8 -8 1023.0 1013.4
12 9.12 ЮЗ 4 20 км {снег} 8/8 600 м
[Sc]
-2.2 -5.4 79 -8 -8 1026.3 1016.6
15 9.12 ЮЗ 4 20 км 4/4 960 м
[Sc]
-4.7 -7.1 83 -11 -11 1029.1 1019.4 -1.1
18 9.12 ЮЗ 3 20 км ясно -5.8 -8.0 84 -11 -11 1031.1 1021.2 -1.1 0.0
21 9.12 ЮЗ 2 20 км ясно -7.4 -9.1 88 -12 -12 1032.9 1023.0
00 10.12 Ю 3 20 км 1/1 1500 м
[Sc]
-7.7 -9.5 87 -13 -13 1033.4 1023.5
03 10.12 ЮВ 2 20 км 8/8 800 м
[Sc]
-8.0 -9.4 90 -13 -13 1034.2 1024.2 7
06 10.12 ЮВ 3 20 км 9/9 870 м
[Sc]
-4.4 -7.1 81 -10 -10 1034.2 1024.4 -9.6
09 10.12 В 2 20 км 3/1 1000 м
[Sc Ci ing]
-1.3 -5.3 74 -5 -2 1032.4 1022.7
12 10.12 СВ 2 20 км 3/0
[Ci ing]
-3.3 -5.7 83 -7 -7 1031.6 1021.9
15 10.12 В 3 20 км 3/0
[Ci ing]
-6.2 -7.7 89 -12 -12 1031.9 1022.0 -1.0
18 10.12 В 2 20 км ясно -10.0 -11.3 90 -15 -15 1031.7 1021.6 -1.0
21 10.12 В 2 20 км ясно -11.7 -13.0 90 -16 -16 1030.7 1020.6
00 11.12 В 1 20 км ясно -12.4 -13.7 90 -15 -15 1030.7 1020.6
03 11.12 В 2 20 км 3/0
[Ci fib]
-12.2 -13.5 90 -17 -17 1030.7 1020.6 4
06 11.12 В 3 20 км 5/0
[Ci fib]
-6.4 -8.7 84 -12 -10 1031.7 1021.8 -12.8
09 11.12 СВ 5 20 км 5/0
[Ci ing]
-5.5 -8.5 79 -13 -11 1030.2 1020.3
12 11.12 СВ 5 20 км 3/1 1500 м
[Sc Ci ing]
-5.9 -8.5 82 -13 -13 1030.5 1020.6
15 11.12 С 3 20 км ясно -8.5 -10.2 87 -14 -14 1031.1 1021.2 -5.5
18 11.12 СВ 5 20 км 8/8 360 м
[Sc]
-7.0 -9.0 86 -14 -14 1031.8 1021.9 -5.2

 

Местоположение метеостанции Нукус (Каракалпакстан, Узбекистан): широта 42.45 долгота 59.62 высота над уровнем моря 77 м.

В архиве по умолчанию представлена погода в Нукусе за последнюю неделю. Архивные данные за месяц целиком и за предыдущие месяцы, начиная с января 2011 года, Вы можете получить, выбрав интересующий диапазон дат из раскрывающегося списка и нажав кнопку "Ввод!".

Внимание! Время в таблицах - всемирное. Для получения местного времени необходимо прибавить поправку, которая в Нукусе равна 5 ч.

Смотрите также архив погоды в соседних городах и на ближайших метеорологических станциях:

Погода в Тахтакупыре (Каракалпакстан, Узбекистан) (3 км)
Погода в Кенеургенче (Дашогузский велаят, Туркменистан) (44 км)
Погода в Чимбае (Каракалпакстан, Узбекистан) (58 км)
Погода в Дашогузе (Дашогузский велаят, Туркменистан) (80 км)
Погода в Кунграде (Каракалпакстан, Узбекистан) (90 км)
Погода в Гурлене (Хорезмская область, Узбекистан) (92 км)
Погода в Шах-Сенеме (Дашогузский велаят, Туркменистан) (122 км)
Погода в Ургенче (Хорезмская область, Узбекистан) (125 км)
Погода в Хиве (Хорезмская область, Узбекистан) (133 км)
Погода в Муйнаке (Каракалпакстан, Узбекистан) (162 км)

Пояснения к столбцам:

Ветер - указаны скорость ветра в м/с - средняя за 10 мин, порывы в срок и между сроками (в фигурных скобках) и направление, откуда дует ветер: С - северный, СВ - северо-восточный, В - восточный, ЮВ - юго-восточный, Ю - южный, ЮЗ - юго-западный, З - западный, СЗ - северо-западный.
Видимость - горизонтальная дальность видимости в метрах или километрах. При видимости от 1 до 10 км при отсутствии осадков обычно наблюдается дымка, при ухудшении видимости до 1 км и менее - туман. В сухую погоду видимость может ухудшаться дымом, пылью или мглою.
Явления - указаны атмосферные явления, наблюдавшиеся в срок или в последний час перед сроком; фигурными скобками обозначены явления, наблюдавшиеся между сроками (за 1-3 часа до срока); квадратными скобками обозначены град или гололедные отложения с указанием их диаметра в мм.
Облачность - указаны через наклонную черту общая и нижняя облачность в баллах и высота нижней границы облаков в метрах; квадратными скобками обозначены формы облаков: Ci - перистые, Cs - перисто-слоистые, Cc - перисто-кучевые, Ac - высококучевые, As - высокослоистые, Sc - слоисто-кучевые, Ns - слоисто-дождевые, Cu - кучевые, Cb - кучево-дождевые. Подробнее классификацию облаков см. в Атласе облаков (PDF).
T - Температура воздуха - температура, измеренная на высоте 2 м над землей.
Td - Температура точки росы - температура, при понижении до которой содержащийся в воздухе водяной пар достигнет насыщения.
f - Относительная влажность воздуха - влажноcть воздуха, измеренная на высоте 2 м над землей.
Te - Эффективная температура - температура, которую ощущает одетый по сезону человек в тени. Характеристика душности погоды. При расчете учитывается влияние влажности воздуха и скорости ветра на теплоощущения человека.
Tes - Эффективная температура на солнце - температура, которую ощущает человек, с поправкой на солнечный нагрев. Характеристика знойности погоды. Зависит от высоты солнца над горизонтом, облачности и скорости ветра. Ночью, в пасмурную погоду, а также при ветре 12 м/с и более поправка равна нулю.
P - Атмосферное давление - приведенное к уровню моря атмосферное давление.
Po - Атмосферное давление - измеренное на уровне метеостанции атмосферное давление.
Tmin - Минимальная температура - минимум температуры воздуха на высоте 2 м над землей.
Tmax - Максимальная температура - максимум температуры воздуха на высоте 2 м над землей.
R - Количество осадков - Количество выпавших осадков за период времени, мм. При наведении курсора мыши на число - период времени, за который выпало указанное количество осадков.
R24 - Количество осадков - Количество выпавших осадков за 24 часа, мм.
S - Снежный покров - Высота снежного покрова, см. При наведении курсора мыши на число - состояние снежного покрова и степень покрытия местности в баллах.